Home   Weather   Teresina   Past weeks
Flag for Brazil

Past Weather in Teresina, Piauí, Brazil — Yesterday and Last 2 Weeks

Now
82 °F

Light rain. Partly sunny.


Feels Like: 89 °F
Forecast: 91 / 75 °F
Wind: 9 mph from East

Location: Teresina Aeroporto

Current Time: Mar 19, 2019 at 2:37:25 pm

Latest Report: Mar 19, 2019 at 2:00 pm


Visibility: N/A

Pressure: 29.80 "Hg

Humidity: 79%

Dew Point: 75 °F

Location of TeresinaLocation

Past Weather in Teresina — Graph

°F

Teresina Temperature Yesterday

Maximum temperature yesterday: 91 °F (at 2:00 pm)
Minimum temperature yesterday: 75 °F (at 5:00 am)
Average temperature yesterday: 82 °F

High & Low Weather Summary for the Past Weeks

 TemperatureHumidityPressure
High91 °F (Mar 9, 2:00 pm)100% (Mar 5, 1:00 am)30.01 "Hg (Mar 5, 1:00 am)
Low72 °F (Mar 5, 3:00 am)49% (Mar 10, 1:00 pm)29.74 "Hg (Mar 9, 4:00 pm)
Average81 °F82%29.87 "Hg
* Reported Mar 4 1:00 pm — Mar 19 1:00 pm, Teresina. Weather by CustomWeather, © 2019

Note: Actual official high and low records may vary slightly from our data, if they occured in-between our weather recording intervals... More about our weather records

Advertising

Teresina Weather History for the Previous 24 Hours

Scroll right to see more
 ConditionsComfort  
Time TempWeatherWind HumidityBarometerVisibility
1:00 pm
Tue, Mar 19
90 °FPartly sunny.6 mph63%29.83 "HgN/A
12:00 pm90 °FPartly sunny.8 mph63%29.86 "HgN/A
11:00 am88 °FBroken clouds.7 mph66%29.89 "HgN/A
10:00 am81 °FBroken clouds.8 mph89%29.92 "HgN/A
9:00 am82 °FBroken clouds.8 mph84%29.89 "HgN/A
8:00 am81 °FPartly sunny.3 mph84%29.89 "HgN/A
7:00 am79 °FScattered clouds.2 mph84%29.86 "HgN/A
6:00 am77 °FLow clouds.No wind89%29.83 "HgN/A
5:00 am77 °FOvercast.2 mph89%29.83 "HgN/A
4:00 am77 °FLow clouds.2 mph89%29.83 "HgN/A
3:00 am75 °FPassing clouds.3 mph94%29.83 "HgN/A
2:00 am75 °FPassing clouds.3 mph89%29.83 "HgN/A
1:00 am77 °FPartly cloudy.5 mph89%29.86 "HgN/A
12:00 am77 °FThundershowers. Passing clouds.5 mph83%29.89 "HgN/A
11:00 pm
Mon, Mar 18
79 °FThundershowers. Passing clouds.2 mph84%29.89 "HgN/A
9:00 pm81 °FPassing clouds.7 mph79%29.89 "HgN/A
8:00 pm81 °FThundershowers. Passing clouds.6 mph79%29.86 "HgN/A
7:00 pm82 °FThundershowers. Passing clouds.2 mph74%29.83 "HgN/A
6:00 pm84 °FSunny.5 mph74%29.77 "Hg10 mi
5:00 pm88 °FBroken clouds.7 mph66%29.77 "HgN/A
4:00 pm91 °FScattered clouds.6 mph52%29.74 "HgN/A
3:00 pm91 °FPartly sunny.5 mph59%29.74 "HgN/A
2:00 pm91 °FPartly sunny.6 mph59%29.80 "HgN/A
Weather by CustomWeather, © 2019

See weather overview